Weather History for KISQ - December, 2012

Change the Weather History Date:

Saturday, December 15, 2012

  Actual Average Record
Temperature  
Mean Temperature 36 °F -  
Max Temperature 39 °F 30 °F 46 °F (1998)
Min Temperature 33 °F 16 °F -6 °F (1989)
Degree Days  
Heating Degree Days 29    
Moisture  
Dew Point 32 °F    
Average Humidity 87    
Maximum Humidity 93    
Minimum Humidity 81    
Precipitation  
Precipitation 0.00 in - - ()
Sea Level Pressure  
Sea Level Pressure 29.91 in    
Wind  
Wind Speed 14 mph (ESE)    
Max Wind Speed 18 mph    
Max Gust Speed 26 mph    
Visibility 8 miles    
Events Rain , Snow    
Averages and records for this station are not official NWS values.
T = Trace of Precipitation, MM = Missing Value Source: NWS Daily Summary

Daily Weather History Graph

Daily Weather History Graph

Search for Another Location

Airport or City:

Trip Planner

Search our weather history database for the weather conditions in past years. The results will help you decide how hot, cold, wet, or windy it might be!

Date:

Astronomy

Dec. 15, 2012 Rise Set
Actual Time 8:20 AM EST 5:00 PM EST
Civil Twilight 7:45 AM EST 5:34 PM EST
Nautical Twilight 7:07 AM EST 6:12 PM EST
Astronomical Twilight 6:31 AM EST 6:49 PM EST
Moon 10:06 AM EST (12/15) 8:10 PM EST (12/15)
Length of Visible Light 9h 49m
Length of Day
8h 40m
Waxing Crescent, 8% of the Moon is Illuminated
Dec 15
Waxing Crescent
Dec 20
First Quarter
Dec 28
Full
Jan 4
Last Quarter
Jan 11
New

Hourly Weather History & Observations

Time (EST) Temp. Windchill Dew Point Humidity Pressure Visibility Wind Dir Wind Speed Gust Speed Precip Events Conditions
12:14 AM 33.8 °F 23.9 °F 28.4 °F 81% 30.17 in 10.0 mi ESE 15.0 mph 19.6 mph N/A   Overcast
12:35 AM 33.8 °F 24.3 °F 28.4 °F 81% 30.15 in 10.0 mi ESE 13.8 mph 19.6 mph N/A   Overcast
12:55 AM 33.8 °F 24.3 °F 28.4 °F 81% 30.15 in 10.0 mi ESE 13.8 mph 18.4 mph N/A   Overcast
1:14 AM 33.8 °F 23.9 °F 28.4 °F 81% 30.14 in 10.0 mi ESE 15.0 mph - N/A   Overcast
1:35 AM 33.8 °F 23.9 °F 30.2 °F 87% 30.14 in 10.0 mi ESE 15.0 mph 23.0 mph N/A   Overcast
1:54 AM 33.8 °F 23.9 °F 30.2 °F 87% 30.13 in 10.0 mi ESE 15.0 mph 21.9 mph N/A   Overcast
2:15 AM 33.8 °F 24.8 °F 30.2 °F 87% 30.12 in 10.0 mi ESE 12.7 mph 19.6 mph N/A   Overcast
2:35 AM 33.8 °F 25.3 °F 30.2 °F 87% 30.12 in 10.0 mi ESE 11.5 mph 17.3 mph N/A   Overcast
2:54 AM 33.8 °F 23.9 °F 30.2 °F 87% 30.12 in 10.0 mi ESE 15.0 mph 19.6 mph N/A   Overcast
3:15 AM 33.8 °F 25.3 °F 30.2 °F 87% 30.12 in 10.0 mi ESE 11.5 mph 19.6 mph N/A   Overcast
3:35 AM 33.8 °F 24.8 °F 30.2 °F 87% 30.11 in 10.0 mi SE 12.7 mph - N/A   Overcast
3:55 AM 33.8 °F 24.8 °F 30.2 °F 87% 30.11 in 10.0 mi ESE 12.7 mph 19.6 mph N/A   Overcast
4:15 AM 33.8 °F 23.5 °F 30.2 °F 87% 30.10 in 10.0 mi ESE 16.1 mph 21.9 mph N/A   Overcast
4:35 AM 33.8 °F 23.5 °F 30.2 °F 87% 30.10 in 10.0 mi ESE 16.1 mph 19.6 mph N/A   Overcast
4:55 AM 35.6 °F 27.1 °F 30.2 °F 81% 30.09 in 10.0 mi ESE 12.7 mph 21.9 mph N/A   Overcast
5:15 AM 33.8 °F 24.8 °F 30.2 °F 87% 30.08 in 10.0 mi ESE 12.7 mph - N/A   Overcast
5:35 AM 33.8 °F 24.3 °F 30.2 °F 87% 30.07 in 10.0 mi ESE 13.8 mph 19.6 mph N/A   Overcast
5:54 AM 33.8 °F 23.9 °F 30.2 °F 87% 30.07 in 10.0 mi ESE 15.0 mph 18.4 mph N/A   Overcast
6:15 AM 33.8 °F 24.8 °F 30.2 °F 87% 30.07 in 10.0 mi ESE 12.7 mph 18.4 mph N/A   Overcast
6:35 AM 35.6 °F 27.1 °F 30.2 °F 81% 30.07 in 10.0 mi ESE 12.7 mph 19.6 mph N/A   Overcast
6:54 AM 35.6 °F 25.9 °F 30.2 °F 81% 30.05 in 10.0 mi ESE 16.1 mph 20.7 mph N/A   Overcast
7:15 AM 35.6 °F 25.9 °F 30.2 °F 81% 30.05 in 10.0 mi ESE 16.1 mph 23.0 mph N/A   Overcast
7:34 AM 35.6 °F 25.9 °F 30.2 °F 81% 30.04 in 10.0 mi ESE 16.1 mph 21.9 mph N/A   Overcast
7:55 AM 35.6 °F 25.9 °F 30.2 °F 81% 30.05 in 10.0 mi ESE 16.1 mph 21.9 mph N/A   Overcast
8:15 AM 35.6 °F 25.5 °F 32.0 °F 87% 30.04 in 10.0 mi ESE 17.3 mph 21.9 mph N/A   Overcast
8:34 AM 35.6 °F 26.2 °F 32.0 °F 87% 30.03 in 10.0 mi ESE 15.0 mph 20.7 mph N/A   Overcast
8:55 AM 35.6 °F 26.2 °F 32.0 °F 87% 30.02 in 10.0 mi ESE 15.0 mph 21.9 mph N/A   Overcast
9:15 AM 35.6 °F 26.2 °F 32.0 °F 87% 30.01 in 10.0 mi ESE 15.0 mph 19.6 mph N/A   Overcast
9:34 AM 37.4 °F 28.9 °F 32.0 °F 81% 30.00 in 10.0 mi ESE 13.8 mph 19.6 mph N/A   Overcast
9:55 AM 37.4 °F 28.2 °F 32.0 °F 81% 29.99 in 10.0 mi ESE 16.1 mph 24.2 mph N/A   Overcast
10:14 AM 37.4 °F 28.9 °F 33.8 °F 87% 29.98 in 10.0 mi ESE 13.8 mph 21.9 mph N/A   Overcast
10:35 AM 37.4 °F 28.2 °F 33.8 °F 87% 29.97 in 10.0 mi ESE 16.1 mph 23.0 mph N/A   Overcast
10:55 AM 37.4 °F 27.5 °F 33.8 °F 87% 29.97 in 10.0 mi ESE 18.4 mph 24.2 mph N/A   Overcast
11:14 AM 37.4 °F 28.2 °F 33.8 °F 87% 29.96 in 10.0 mi ESE 16.1 mph 20.7 mph N/A   Overcast
11:35 AM 37.4 °F 27.8 °F 33.8 °F 87% 29.95 in 10.0 mi ESE 17.3 mph 25.3 mph N/A   Overcast
11:55 AM 37.4 °F 28.2 °F 33.8 °F 87% 29.94 in 10.0 mi ESE 16.1 mph 25.3 mph N/A   Overcast
12:14 PM 37.4 °F 27.5 °F 33.8 °F 87% 29.93 in 10.0 mi ESE 18.4 mph 26.5 mph N/A   Mostly Cloudy
12:35 PM 37.4 °F 27.8 °F 33.8 °F 87% 29.92 in 10.0 mi ESE 17.3 mph 24.2 mph N/A   Mostly Cloudy
12:54 PM 37.4 °F 28.9 °F 33.8 °F 87% 29.91 in 10.0 mi ESE 13.8 mph 23.0 mph N/A   Mostly Cloudy
1:15 PM 37.4 °F 27.8 °F 33.8 °F 87% 29.89 in 10.0 mi ESE 17.3 mph 23.0 mph N/A   Scattered Clouds
1:34 PM 39.2 °F 30.5 °F 33.8 °F 81% 29.88 in 10.0 mi ESE 16.1 mph 24.2 mph N/A   Scattered Clouds
1:55 PM 39.2 °F 31.2 °F 33.8 °F 81% 29.86 in 10.0 mi ESE 13.8 mph 21.9 mph N/A   Scattered Clouds
2:15 PM 39.2 °F 32.0 °F 33.8 °F 81% 29.85 in 10.0 mi ESE 11.5 mph 19.6 mph N/A   Scattered Clouds
2:34 PM 39.2 °F 31.6 °F 33.8 °F 81% 29.85 in 10.0 mi ESE 12.7 mph - N/A   Scattered Clouds
2:55 PM 39.2 °F 30.8 °F 33.8 °F 81% 29.84 in 10.0 mi ESE 15.0 mph 20.7 mph N/A   Mostly Cloudy
3:14 PM 39.2 °F 31.2 °F 33.8 °F 81% 29.83 in 10.0 mi ESE 13.8 mph 20.7 mph N/A   Light Drizzle
3:35 PM 39.2 °F 31.2 °F 35.6 °F 87% 29.81 in 10.0 mi ESE 13.8 mph 18.4 mph N/A Rain Light Rain
3:55 PM 39.2 °F 31.6 °F 35.6 °F 87% 29.80 in 7.0 mi ESE 12.7 mph 19.6 mph N/A Rain Light Rain
4:15 PM 39.2 °F 30.8 °F 35.6 °F 87% 29.79 in 5.0 mi ESE 15.0 mph 20.7 mph N/A Rain Light Rain
4:35 PM 37.4 °F 28.9 °F 35.6 °F 93% 29.78 in 3.0 mi ESE 13.8 mph 23.0 mph N/A Rain Light Rain
4:54 PM 37.4 °F 29.3 °F 35.6 °F 93% 29.77 in 3.0 mi ESE 12.7 mph 18.4 mph N/A Rain Light Rain
5:15 PM 37.4 °F 28.5 °F 35.6 °F 93% 29.76 in 5.0 mi ESE 15.0 mph 25.3 mph N/A Rain Light Rain
5:35 PM 37.4 °F 28.2 °F 35.6 °F 93% 29.75 in 5.0 mi ESE 16.1 mph 23.0 mph N/A Rain Light Rain
5:55 PM 37.4 °F 27.5 °F 33.8 °F 87% 29.75 in 4.0 mi ESE 18.4 mph 24.2 mph N/A Rain Light Rain
6:15 PM 35.6 °F 25.5 °F 33.8 °F 93% 29.74 in 3.0 mi East 17.3 mph 23.0 mph N/A Snow Light Snow
6:34 PM 35.6 °F 25.9 °F 33.8 °F 93% 29.73 in 3.0 mi East 16.1 mph 25.3 mph N/A Snow Light Snow
6:55 PM 35.6 °F 25.9 °F 33.8 °F 93% 29.72 in 3.0 mi ESE 16.1 mph 25.3 mph N/A Snow Light Snow
7:15 PM 35.6 °F 26.2 °F 32.0 °F 87% 29.72 in 2.5 mi East 15.0 mph 26.5 mph N/A Snow Light Snow
7:34 PM 33.8 °F 23.9 °F 30.2 °F 87% 29.71 in 2.0 mi East 15.0 mph 21.9 mph N/A Snow Light Snow
7:55 PM 33.8 °F 23.5 °F 30.2 °F 87% 29.70 in 1.5 mi East 16.1 mph 23.0 mph N/A Snow Light Snow
8:14 PM 33.8 °F 24.8 °F 30.2 °F 87% 29.70 in 1.2 mi East 12.7 mph 17.3 mph N/A Snow Light Snow
8:35 PM 33.8 °F 24.8 °F 30.2 °F 87% 29.68 in 1.2 mi East 12.7 mph 19.6 mph N/A Snow Light Snow
8:55 PM 33.8 °F 24.8 °F 30.2 °F 87% 29.68 in 1.5 mi East 12.7 mph 18.4 mph N/A Snow Light Snow
9:15 PM 33.8 °F 25.3 °F 30.2 °F 87% 29.67 in 1.8 mi East 11.5 mph 20.7 mph N/A Snow Light Snow
9:35 PM 33.8 °F 24.3 °F 30.2 °F 87% 29.66 in 2.0 mi East 13.8 mph 19.6 mph N/A Snow Light Snow
9:54 PM 33.8 °F 24.3 °F 32.0 °F 93% 29.65 in 5.0 mi East 13.8 mph 18.4 mph N/A Snow Light Snow
10:15 PM 33.8 °F 25.3 °F 32.0 °F 93% 29.65 in 5.0 mi East 11.5 mph 18.4 mph N/A Rain Light Rain
10:35 PM 35.6 °F 28.6 °F 33.8 °F 93% 29.64 in 4.0 mi East 9.2 mph 19.6 mph N/A Rain Light Rain
10:54 PM 35.6 °F 28.0 °F 33.8 °F 93% 29.63 in 7.0 mi East 10.4 mph 18.4 mph N/A   Overcast
11:15 PM 35.6 °F 26.2 °F 33.8 °F 93% 29.62 in 7.0 mi ESE 15.0 mph 19.6 mph N/A Rain Light Rain
11:34 PM 35.6 °F 26.2 °F 33.8 °F 93% 29.62 in 5.0 mi ESE 15.0 mph 18.4 mph N/A Rain Light Rain
11:55 PM 35.6 °F 28.6 °F 33.8 °F 93% 29.61 in 7.0 mi East 9.2 mph - N/A Rain Light Rain